Terminal Aerodrome Forecast
Issued by NWS Duluth, MN

Home | Current Version | Previous Version | Text Only | Print | Product List | Glossary On
Versions: 1 2 3 4 5 6 7 8 9 10 11 12 13 14 15 16 17 18 19 20 21
000
FTUS43 KDLH 240540
TAFDLH
TAF
KDLH 240540Z 2406/2506 12007KT P6SM BKN007 OVC020
     FM240700 12007KT 5SM BR VCSH OVC007
      TEMPO 2407/2409 1 1/2SM -TSRA BR BKN007CB OVC015
     FM241000 15004KT 3SM BR BKN007 OVC014
     FM241400 28011G16KT P6SM SCT015
     FM241600 29015G20KT P6SM SCT030 SCT200
     FM250100 28007KT P6SM SCT050=

USA.gov is the U.S. government's official web portal to all federal, state and local government web resources and services.